Погода в Хартфорде

Великобритания     51°47′46″N   0°04′57″E
темп.,
°C
ветер,
м/с
пор.,
м/с
влажн.,
%
обл.,
%
осадки,
мм/ч
давл.,
гПа
погр.,
м
21 октября, чт
чт2101:00+9ссз111490100 15.6 991973
04:00+9зсз9168250 1.7 996982
07:00+9зсз9167821 1.8 10001184
10:00+6ссз71189100 0.2 1007961
13:00+9ссз78628 0.2 10111135
16:00+10сз466251 0.0 10141295
19:00+7зсз35745 0.0 101687
22:00+6з497560 0.0 1018178
22 октября, пт
пт2201:00+6з511810 0.0 1018271
04:00+6з513835 0.0 1018355
07:00+6з613825 0.0 1019397
10:00+8з61375100 0.0 1020500
13:00+10з61275100 0.0 1021742
16:00+11зсз51075100 0.2 1021737
19:00+10зсз498185 0.4 1023274
22:00+7зсз36895 0.1 102598
23 октября, сб
сб2301:00+7з22908 0.1 102525
04:00+7зюз22915 0.0 102527
07:00+6зюз228933 0.0 102522
10:00+9юз357928 0.0 1026212
13:00+12юз5763100 0.0 1025982
16:00+12юз4763100 0.0 1024572
19:00+10ююз487749 0.0 1023180
22:00+9ю4980100 0.0 1023207
24 октября, вс
вс2401:00+9ююв4883100 0.0 1022188
04:00+8ююв4785100 0.0 1020141
07:00+8ю4984100 0.0 1019212
10:00+10ю51174100 0.0 1019672
13:00+13ю61068100 0.0 1018901
16:00+13ююз59647 0.0 1016915
19:00+11ю598293 0.0 1016373
22:00+12ю51287100 0.3 1015609
25 октября, пн
пн2501:00+11юз489528 0.3 1015240
04:00+10юз38952 0.0 1015204
07:00+9юз49947 0.0 1016213
10:00+11юз49857 0.0 1017355
13:00+14зюз687257 0.0 10171066
16:00+14зюз4767100 0.3 10171022
19:00+11зюз498159 0.3 1018246
22:00+10ююз368999 0.0 1019139